STARLINK-1309, 45414

Orbit data source: Space-Track

STARLINK-1309, 45414 is a payload satellite owned by SpaceX/Seattle (US) in LEO that was launched on Wed, 18 Mar 2020 UTC via an FALCON 9 launch vehicle from the Air Force Eastern Test Range (AFETR). Payloads include a variety of satellites, spacecraft, and rockets equipped with specific instruments for various scientific and technological missions. These include communications satellites like Starlink; space stations such as the ISS; scientific satellites like the Hubble; Earth observation satellites from companies like Planet Labs, Umbra, and HawkEye 360; GPS; miniature CubeSats for education and research; and military/defense satellites.

Loading next visibility...
STARLINK-1309 details
Identifier
45414, 2020-019BG
Orbit
LEO
Last TLE update14 hours ago
Origin
Flag of USSpaceX/Seattle (US)
ManufacturerSpaceX/Seattle
MissionOperational Commercial Communications
Bus & MotorSTARLINK, Unknown motor
Mass260 kg wet, ~248 kg dry
Launch date (UTC)
2020-03-18 (5 years ago)
Launch vehicle
FALCON 9
Launch site
Air Force Eastern Test Range (AFETR)
Object type
Payload
Rocket body
Debris
Shape & HBRBox + 1 Pan, 8.86 m
Radar Cross Section13.562 m², Large (>1 m²)

Expand to show TLE details & history

TLE from 14 hours ago
0 STARLINK-1309
1 45414U 20019BG  24339.87757923  .00005829  00000-0  40974-3 0  9990
2 45414  53.0546  40.7954 0002352  77.8222 282.3030 15.06415378260569
Epoch: 2024-12-04T21:03Z
Definitive object data (Epoch: 2024-12-04T21:03:42.845Z)
Latitude-0.00005°
Longitude10.70042°
Altitude547.697 km
Speed7.59 km/s
True Right ascension02h 43m 10s
True Declination0° 00' 00"
Sunlit
Object was in full shadow at TLE epoch
Visualization TLE readout
Latitude-2.07107°
Longitude-170.28397°
Altitude548.68 km
Speed7.588 km/s
Apparent Right ascension16h 58m 54s
Apparent Declination-26° 47' 05"
Sunlit
Object is in daylight
Visualization observer readout
Local Sidereal Time08:34:49
Azimuth90.696° ESE
Elevation-43.774°
Doppler factor1
Orbital elements
Apogee altitude549.064 km
Perigee altitude545.806 km
Semi-major axis6,925.572 km
Eccentricity0.0002352
Inclination53.0546°
RAAN40.7954°
Arg. of periapsis77.8222°
True anomaly282.27667°
Mean anomaly282.303°
Eccentric anomaly282.28983°
Mean motion3.76582 °/min
BSTAR0.00040974
Orbital period95.6 mins
Loading maneuver chart data...
Loading historical data...
Loading historical data...
Loading historical data...
Loading historical data...
Loading historical data...
Loading historical data...
Loading historical data...

STARLINK-1309 Visibility forecast

Observer location: undefined°, undefined

Span
Click to sort rows by Start time (UTC) header in descending order
Start Az.
Max El. time (UTC)
Max El. Az.
Max El.
End time (UTC)
End Az.
4 mins2024-12-05 11:49:24.266Z342.434° N2024-12-05 11:51:24.266Z15.581° NNE16.497°2024-12-05 11:53:24.266Z49.32° ENE
6 mins2024-12-05 13:29:24.266Z324.59° NNW2024-12-05 13:31:24.266Z16.796° NNE39.66°2024-12-05 13:35:24.266Z115.125° SE
4 mins2024-12-05 15:09:24.266Z259.89° W2024-12-05 15:10:24.266Z241.635° WSW18.298°2024-12-05 15:13:24.266Z189.8° SSW
6 mins2024-12-06 06:41:24.266Z221.726° SW2024-12-06 06:43:24.266Z196.067° SSW42.846°2024-12-06 06:47:24.266Z53.087° ENE
4 mins2024-12-06 08:22:24.266Z308.796° NW2024-12-06 08:23:24.266Z329.485° NNW20.976°2024-12-06 08:26:24.266Z24.311° NE
|